• In United Kingdom
  • List of Countries
  • For 7 days
  • Water Temperature
  • Satellite Maps
  • Weather Map
  • Weather Widgets
  • user-avatar
    Login

    Hourly Weather Cyklady

    Today, 22 July, Sunday

    Time Temperature Precipitation Wind Pressure Humidity
    00:00 +22°C° 0 mm 1 mps 684 mmHg 64%
    01:00 +22°C° 0 mm 1 mps 683 mmHg 63%
    02:00 +21°C° 0 mm 1 mps 683 mmHg 63%
    03:00 +21°C° 0 mm 1 mps 683 mmHg 63%
    04:00 +21°C° 0 mm 1 mps 683 mmHg 63%
    05:00 +23°C° 0 mm 1 mps 684 mmHg 57%
    06:00 +25°C° 0 mm 1 mps 684 mmHg 51%
    07:00 +27°C° 0 mm 1 mps 685 mmHg 45%
    08:00 +29°C° 0 mm 1 mps 685 mmHg 39%
    09:00 +31°C° 0 mm 2 mps 685 mmHg 33%
    10:00 +34°C° 0 mm 2 mps 685 mmHg 27%
    11:00 +34°C° 0 mm 3 mps 685 mmHg 25%
    12:00 +35°C° 0 mm 3 mps 685 mmHg 23%
    13:00 +36°C° 0 mm 4 mps 685 mmHg 21%
    14:00 +35°C° 0 mm 4 mps 685 mmHg 22%
    15:00 +34°C° 0 mm 4 mps 684 mmHg 23%
    16:00 +34°C° 0 mm 3 mps 684 mmHg 24%
    17:00 +30°C° 0 mm 3 mps 684 mmHg 31%
    18:00 +27°C° 0 mm 3 mps 683 mmHg 37%
    19:00 +25°C° 0 mm 2 mps 683 mmHg 44%
    20:00 +24°C° 0 mm 2 mps 683 mmHg 45%
    21:00 +23°C° 0 mm 2 mps 683 mmHg 47%
    22:00 +22°C° 0 mm 1 mps 683 mmHg 48%
    23:00 +21°C° 0 mm 2 mps 682 mmHg 47%

    Tomorrow, 23 July, Monday

    Time Temperature Precipitation Wind Pressure Humidity
    00:00 +21°C° 0 mm 2 mps 682 mmHg 45%
    01:00 +20°C° 0 mm 2 mps 682 mmHg 44%
    02:00 +20°C° 0 mm 2 mps 681 mmHg 44%
    03:00 +20°C° 0 mm 2 mps 681 mmHg 44%
    04:00 +20°C° 0 mm 2 mps 681 mmHg 45%
    05:00 +23°C° 0 mm 2 mps 681 mmHg 44%
    06:00 +24°C° 0 mm 2 mps 682 mmHg 43%
    07:00 +26°C° 0 mm 2 mps 682 mmHg 42%
    08:00 +28°C° 0 mm 3 mps 682 mmHg 38%
    09:00 +30°C° 0 mm 4 mps 682 mmHg 33%
    10:00 +32°C° 0 mm 4 mps 682 mmHg 29%
    11:00 +32°C° 0 mm 5 mps 682 mmHg 30%
    12:00 +32°C° 0 mm 5 mps 682 mmHg 31%
    13:00 +32°C° 0 mm 6 mps 681 mmHg 33%
    14:00 +30°C° 0 mm 6 mps 681 mmHg 34%
    15:00 +30°C° 0 mm 6 mps 680 mmHg 35%
    16:00 +29°C° 0 mm 6 mps 680 mmHg 36%
    17:00 +27°C° 0 mm 5 mps 680 mmHg 43%
    18:00 +25°C° 0 mm 4 mps 679 mmHg 50%
    19:00 +22°C° 0 mm 3 mps 679 mmHg 57%
    20:00 +21°C° 0 mm 3 mps 679 mmHg 62%
    21:00 +21°C° 0 mm 3 mps 679 mmHg 67%
    22:00 +20°C° 0 mm 2 mps 679 mmHg 73%
    23:00 +19°C° 0 mm 2 mps 679 mmHg 77%

    Day after tomorrow, 24 July, Tuesday

    Time Temperature Precipitation Wind Pressure Humidity
    00:00 +19°C° 0 mm 2 mps 678 mmHg 82%
    01:00 +18°C° 0 mm 2 mps 678 mmHg 87%
    02:00 +18°C° 0 mm 2 mps 678 mmHg 88%
    03:00 +17°C° 0 mm 2 mps 677 mmHg 89%
    04:00 +17°C° 0 mm 2 mps 677 mmHg 91%
    05:00 +19°C° 0 mm 2 mps 677 mmHg 81%
    06:00 +20°C° 0 mm 2 mps 678 mmHg 71%
    07:00 +22°C° 0 mm 3 mps 678 mmHg 61%
    08:00 +24°C° 0 mm 3 mps 678 mmHg 54%
    09:00 +25°C° 0 mm 3 mps 679 mmHg 48%
    10:00 +27°C° 0 mm 4 mps 679 mmHg 41%
    11:00 +27°C° 0 mm 4 mps 679 mmHg 41%
    12:00 +28°C° 0 mm 4 mps 679 mmHg 41%
    13:00 +28°C° 0 mm 4 mps 679 mmHg 41%
    14:00 +27°C° 0.2 mm 4 mps 679 mmHg 46%
    15:00 +26°C° 0.2 mm 4 mps 678 mmHg 50%
    16:00 +25°C° 0.2 mm 4 mps 678 mmHg 55%
    17:00 +24°C° 0.3 mm 3 mps 678 mmHg 61%
    18:00 +22°C° 0.3 mm 3 mps 678 mmHg 67%
    19:00 +20°C° 0.3 mm 3 mps 678 mmHg 72%
    20:00 +20°C° 0.1 mm 2 mps 678 mmHg 76%
    21:00 +19°C° 0.1 mm 2 mps 678 mmHg 79%
    22:00 +19°C° 0.1 mm 2 mps 679 mmHg 82%
    23:00 +18°C° 0 mm 2 mps 678 mmHg 83%

    25 July, Wednesday

    Time Temperature Precipitation Wind Pressure Humidity
    00:00 +18°C° 0 mm 2 mps 678 mmHg 84%
    01:00 +18°C° 0 mm 2 mps 678 mmHg 85%
    02:00 +18°C° 0 mm 2 mps 678 mmHg 85%
    03:00 +18°C° 0 mm 1 mps 678 mmHg 85%
    04:00 +18°C° 0 mm 1 mps 678 mmHg 84%
    05:00 +20°C° 0.1 mm 1 mps 678 mmHg 77%
    06:00 +22°C° 0.1 mm 1 mps 679 mmHg 70%
    07:00 +24°C° 0.1 mm 1 mps 679 mmHg 62%
    08:00 +25°C° 0.2 mm 1 mps 680 mmHg 57%
    09:00 +26°C° 0.2 mm 2 mps 680 mmHg 53%
    10:00 +27°C° 0.2 mm 2 mps 680 mmHg 48%
    11:00 +27°C° 0.4 mm 3 mps 680 mmHg 49%
    12:00 +27°C° 0.4 mm 3 mps 680 mmHg 50%
    13:00 +27°C° 0.4 mm 4 mps 680 mmHg 52%
    14:00 +26°C° 0.7 mm 4 mps 680 mmHg 53%
    15:00 +26°C° 0.7 mm 4 mps 680 mmHg 55%
    16:00 +26°C° 0.7 mm 4 mps 680 mmHg 57%
    17:00 +24°C° 0.3 mm 3 mps 680 mmHg 63%
    18:00 +22°C° 0.3 mm 3 mps 680 mmHg 69%
    19:00 +21°C° 0.3 mm 3 mps 679 mmHg 75%
    20:00 +20°C° 0.1 mm 2 mps 679 mmHg 79%
    21:00 +19°C° 0.1 mm 2 mps 679 mmHg 83%
    22:00 +19°C° 0.1 mm 2 mps 679 mmHg 87%
    23:00 +18°C° 0.1 mm 2 mps 679 mmHg 88%

    26 July, Thursday

    Time Temperature Precipitation Wind Pressure Humidity
    00:00 +18°C° 0.1 mm 2 mps 679 mmHg 90%
    01:00 +18°C° 0.1 mm 2 mps 679 mmHg 91%
    02:00 +17°C° 0.1 mm 2 mps 679 mmHg 91%
    03:00 +17°C° 0.1 mm 2 mps 679 mmHg 91%
    04:00 +17°C° 0.1 mm 2 mps 679 mmHg 90%
    05:00 +20°C° 0.2 mm 1 mps 679 mmHg 82%
    06:00 +22°C° 0.2 mm 1 mps 680 mmHg 73%
    07:00 +23°C° 0.2 mm 1 mps 680 mmHg 64%
    08:00 +25°C° 0.2 mm 1 mps 680 mmHg 58%
    09:00 +26°C° 0.2 mm 2 mps 681 mmHg 52%
    10:00 +28°C° 0.2 mm 2 mps 681 mmHg 46%
    11:00 +28°C° 0.6 mm 2 mps 681 mmHg 48%
    12:00 +27°C° 0.6 mm 3 mps 681 mmHg 50%
    13:00 +27°C° 0.6 mm 3 mps 681 mmHg 52%
    14:00 +26°C° 1.4 mm 3 mps 681 mmHg 55%
    15:00 +26°C° 1.4 mm 3 mps 681 mmHg 57%
    16:00 +25°C° 1.4 mm 3 mps 681 mmHg 60%
    17:00 +24°C° 0.4 mm 2 mps 681 mmHg 65%
    18:00 +23°C° 0.4 mm 2 mps 681 mmHg 70%
    19:00 +21°C° 0.4 mm 2 mps 681 mmHg 76%
    20:00 +20°C° 0.3 mm 2 mps 681 mmHg 78%
    21:00 +20°C° 0.3 mm 2 mps 681 mmHg 81%
    22:00 +20°C° 0.3 mm 1 mps 681 mmHg 84%
    23:00 +20°C° 0.1 mm 1 mps 681 mmHg 85%

    27 July, Friday

    Time Temperature Precipitation Wind Pressure Humidity
    00:00 +20°C° 0.1 mm 1 mps 681 mmHg 85%
    01:00 +20°C° 0.1 mm 1 mps 681 mmHg 86%
    02:00 +19°C° 0.2 mm 1 mps 680 mmHg 86%
    03:00 +19°C° 0.2 mm 1 mps 680 mmHg 86%
    04:00 +19°C° 0.2 mm 1 mps 680 mmHg 86%
    05:00 +21°C° 0 mm 1 mps 681 mmHg 79%
    06:00 +22°C° 0 mm 1 mps 681 mmHg 72%
    07:00 +24°C° 0 mm 1 mps 682 mmHg 65%
    08:00 +25°C° 0.1 mm 1 mps 682 mmHg 59%
    09:00 +27°C° 0.1 mm 2 mps 682 mmHg 53%
    10:00 +28°C° 0.1 mm 2 mps 683 mmHg 47%
    11:00 +28°C° 1 mm 2 mps 682 mmHg 49%
    12:00 +28°C° 1 mm 3 mps 682 mmHg 52%
    13:00 +27°C° 1 mm 3 mps 682 mmHg 54%
    14:00 +27°C° 1.3 mm 3 mps 682 mmHg 57%
    15:00 +26°C° 1.3 mm 2 mps 682 mmHg 60%
    16:00 +25°C° 1.3 mm 2 mps 682 mmHg 64%
    17:00 +24°C° 0.1 mm 2 mps 682 mmHg 68%
    18:00 +23°C° 0.1 mm 2 mps 682 mmHg 72%
    19:00 +23°C° 0.1 mm 2 mps 682 mmHg 76%
    20:00 +21°C° 0.1 mm 2 mps 682 mmHg 79%
    21:00 +21°C° 0.1 mm 1 mps 682 mmHg 81%
    22:00 +21°C° 0.1 mm 1 mps 682 mmHg 84%
    23:00 +21°C° 0.2 mm 1 mps 681 mmHg 85%
    Show more